Year,Month,Day,Hour,Minute,Value (Times are PST for temperature in C)
2019,05,04,00,00,10.20
2019,05,04,00,01,10.10
2019,05,04,00,02,10.10
2019,05,04,00,03,10.20
2019,05,04,00,04,10.20
2019,05,04,00,05,10.20
2019,05,04,00,06,10.10
2019,05,04,00,07,10.10
2019,05,04,00,08,10.10
2019,05,04,00,09,10.10
2019,05,04,00,10,10.10
2019,05,04,00,11,10.00
2019,05,04,00,12,10.00
2019,05,04,00,13,10.10
2019,05,04,00,14,10.10
2019,05,04,00,15,10.10
2019,05,04,00,16,10.10
2019,05,04,00,17,10.10
2019,05,04,00,18,10.10
2019,05,04,00,19,10.10
2019,05,04,00,20,10.10
2019,05,04,00,21,10.10
2019,05,04,00,22,10.20
2019,05,04,00,23,10.20
2019,05,04,00,24,10.20
2019,05,04,00,25,10.20
2019,05,04,00,26,10.20
2019,05,04,00,27,10.20
2019,05,04,00,28,10.20
2019,05,04,00,29,10.20
2019,05,04,00,30,10.20
2019,05,04,00,31,10.20
2019,05,04,00,32,10.20
2019,05,04,00,33,10.20
2019,05,04,00,34,10.20
2019,05,04,00,35,10.20
2019,05,04,00,36,10.20
2019,05,04,00,37,10.20
2019,05,04,00,38,10.20
2019,05,04,00,39,10.20
2019,05,04,00,40,10.20
2019,05,04,00,41,10.20
2019,05,04,00,42,10.10
2019,05,04,00,43,10.10
2019,05,04,00,44,10.10
2019,05,04,00,45,10.10
2019,05,04,00,46,10.10
2019,05,04,00,47,10.10
2019,05,04,00,48,10.10
2019,05,04,00,49,10.10
2019,05,04,00,50,10.10
2019,05,04,00,51,10.10
2019,05,04,00,52,10.00
2019,05,04,00,53,10.00
2019,05,04,00,54,10.00
2019,05,04,00,55,10.00
2019,05,04,00,56,10.00
2019,05,04,00,57,9.90
2019,05,04,00,58,9.90
2019,05,04,00,59,9.90
2019,05,04,01,00,9.90
2019,05,04,01,01,9.90
2019,05,04,01,02,9.90
2019,05,04,01,03,9.90
2019,05,04,01,04,9.90
2019,05,04,01,05,9.90
2019,05,04,01,06,9.90
2019,05,04,01,07,9.90
2019,05,04,01,08,9.90
2019,05,04,01,09,9.90
2019,05,04,01,10,9.90
2019,05,04,01,11,9.90
2019,05,04,01,12,9.90
2019,05,04,01,13,9.90
2019,05,04,01,14,9.90
2019,05,04,01,15,9.80
2019,05,04,01,16,9.80
2019,05,04,01,17,9.80
2019,05,04,01,18,9.80
2019,05,04,01,19,9.80
2019,05,04,01,20,9.80
2019,05,04,01,21,9.80
2019,05,04,01,22,9.80
2019,05,04,01,23,9.80
2019,05,04,01,24,9.80
2019,05,04,01,25,9.70
2019,05,04,01,26,9.70
2019,05,04,01,27,9.70
2019,05,04,01,28,9.70
2019,05,04,01,29,9.70
2019,05,04,01,30,9.70
2019,05,04,01,31,9.70
2019,05,04,01,32,9.70
2019,05,04,01,33,9.60
2019,05,04,01,34,9.60
2019,05,04,01,35,9.60
2019,05,04,01,36,9.60
2019,05,04,01,37,9.60
2019,05,04,01,38,9.60
2019,05,04,01,39,9.60
2019,05,04,01,40,9.60
2019,05,04,01,41,9.50
2019,05,04,01,42,9.50
2019,05,04,01,43,9.50
2019,05,04,01,44,9.50
2019,05,04,01,45,9.40
2019,05,04,01,46,9.40
2019,05,04,01,47,9.40
2019,05,04,01,48,9.40
2019,05,04,01,49,9.40
2019,05,04,01,50,9.40
2019,05,04,01,51,9.40
2019,05,04,01,52,9.40
2019,05,04,01,53,9.40
2019,05,04,01,54,9.30
2019,05,04,01,55,9.30
2019,05,04,01,56,9.30
2019,05,04,01,57,9.30
2019,05,04,01,58,9.30
2019,05,04,01,59,9.30
2019,05,04,02,00,9.30
2019,05,04,02,01,9.20
2019,05,04,02,02,9.20
2019,05,04,02,03,9.20
2019,05,04,02,04,9.10
2019,05,04,02,05,9.10
2019,05,04,02,06,9.10
2019,05,04,02,07,9.10
2019,05,04,02,08,9.10
2019,05,04,02,09,9.00
2019,05,04,02,10,9.00
2019,05,04,02,11,9.00
2019,05,04,02,12,9.00
2019,05,04,02,13,9.00
2019,05,04,02,14,9.10
2019,05,04,02,15,9.10
2019,05,04,02,16,9.10
2019,05,04,02,17,9.00
2019,05,04,02,18,9.00
2019,05,04,02,19,9.00
2019,05,04,02,20,9.00
2019,05,04,02,21,9.00
2019,05,04,02,22,9.00
2019,05,04,02,23,9.00
2019,05,04,02,24,9.00
2019,05,04,02,25,9.00
2019,05,04,02,26,8.90
2019,05,04,02,27,8.90
2019,05,04,02,28,8.90
2019,05,04,02,29,8.80
2019,05,04,02,30,8.80
2019,05,04,02,31,8.80
2019,05,04,02,32,8.80
2019,05,04,02,33,8.80
2019,05,04,02,34,8.80
2019,05,04,02,35,8.80
2019,05,04,02,36,8.80
2019,05,04,02,37,8.80
2019,05,04,02,38,8.80
2019,05,04,02,39,8.80
2019,05,04,02,40,8.80
2019,05,04,02,41,8.80
2019,05,04,02,42,8.80
2019,05,04,02,43,8.80
2019,05,04,02,44,8.80
2019,05,04,02,45,8.90
2019,05,04,02,46,8.90
2019,05,04,02,47,8.90
2019,05,04,02,48,8.80
2019,05,04,02,49,8.80
2019,05,04,02,50,8.80
2019,05,04,02,51,8.80
2019,05,04,02,52,8.80
2019,05,04,02,53,8.80
2019,05,04,02,54,8.80
2019,05,04,02,55,8.80
2019,05,04,02,56,8.80
2019,05,04,02,57,8.80
2019,05,04,02,58,8.70
2019,05,04,02,59,8.70
2019,05,04,03,00,8.70
2019,05,04,03,01,8.60
2019,05,04,03,02,8.60
2019,05,04,03,03,8.60
2019,05,04,03,04,8.70
2019,05,04,03,05,8.60
2019,05,04,03,06,8.60
2019,05,04,03,07,8.60
2019,05,04,03,08,8.60
2019,05,04,03,09,8.60
2019,05,04,03,10,8.60
2019,05,04,03,11,8.60
2019,05,04,03,12,8.60
2019,05,04,03,13,8.60
2019,05,04,03,14,8.70
2019,05,04,03,15,8.60
2019,05,04,03,16,8.60
2019,05,04,03,17,8.60
2019,05,04,03,18,8.70
2019,05,04,03,19,8.70
2019,05,04,03,20,8.70
2019,05,04,03,21,8.80
2019,05,04,03,22,8.80
2019,05,04,03,23,8.80
2019,05,04,03,24,8.90
2019,05,04,03,25,8.90
2019,05,04,03,26,8.90
2019,05,04,03,27,8.90
2019,05,04,03,28,8.80
2019,05,04,03,29,8.70
2019,05,04,03,30,8.70
2019,05,04,03,31,8.60
2019,05,04,03,32,8.60
2019,05,04,03,33,8.60
2019,05,04,03,34,8.60
2019,05,04,03,35,8.60
2019,05,04,03,36,8.60
2019,05,04,03,37,8.60
2019,05,04,03,38,8.50
2019,05,04,03,39,8.50
2019,05,04,03,40,8.50
2019,05,04,03,41,8.50
2019,05,04,03,42,8.50
2019,05,04,03,43,8.50
2019,05,04,03,44,8.50
2019,05,04,03,45,8.50
2019,05,04,03,46,8.50
2019,05,04,03,47,8.60
2019,05,04,03,48,8.60
2019,05,04,03,49,8.60
2019,05,04,03,50,8.60
2019,05,04,03,51,8.60
2019,05,04,03,52,8.60
2019,05,04,03,53,8.60
2019,05,04,03,54,8.60
2019,05,04,03,55,8.60
2019,05,04,03,56,8.60
2019,05,04,03,57,8.60
2019,05,04,03,58,8.60
2019,05,04,03,59,8.50
2019,05,04,04,00,8.50
2019,05,04,04,01,8.50
2019,05,04,04,02,8.50
2019,05,04,04,03,8.60
2019,05,04,04,04,8.60
2019,05,04,04,05,8.60
2019,05,04,04,06,8.60
2019,05,04,04,07,8.70
2019,05,04,04,08,8.70
2019,05,04,04,09,8.70
2019,05,04,04,10,8.80
2019,05,04,04,11,8.90
2019,05,04,04,12,8.90
2019,05,04,04,13,8.90
2019,05,04,04,14,9.00
2019,05,04,04,15,9.00
2019,05,04,04,16,9.00
2019,05,04,04,17,9.00
2019,05,04,04,18,8.90
2019,05,04,04,19,8.90
2019,05,04,04,20,9.00
2019,05,04,04,21,9.00
2019,05,04,04,22,9.00
2019,05,04,04,23,9.00
2019,05,04,04,24,9.00
2019,05,04,04,25,9.00
2019,05,04,04,26,9.00
2019,05,04,04,27,9.00
2019,05,04,04,28,9.00
2019,05,04,04,29,9.00
2019,05,04,04,30,9.00
2019,05,04,04,31,9.00
2019,05,04,04,32,9.00
2019,05,04,04,33,9.00
2019,05,04,04,34,9.00
2019,05,04,04,35,9.00
2019,05,04,04,36,9.00
2019,05,04,04,37,9.00
2019,05,04,04,38,9.00
2019,05,04,04,39,9.00
2019,05,04,04,40,9.10
2019,05,04,04,41,9.10
2019,05,04,04,42,9.10
2019,05,04,04,43,9.10
2019,05,04,04,44,9.10
2019,05,04,04,45,9.10
2019,05,04,04,46,9.10
2019,05,04,04,47,9.10
2019,05,04,04,48,9.10
2019,05,04,04,49,9.20
2019,05,04,04,50,9.10
2019,05,04,04,51,9.20
2019,05,04,04,52,9.20
2019,05,04,04,53,9.20
2019,05,04,04,54,9.20
2019,05,04,04,55,9.20
2019,05,04,04,56,9.10
2019,05,04,04,57,9.10
2019,05,04,04,58,9.10
2019,05,04,04,59,9.10
2019,05,04,05,00,9.00
2019,05,04,05,01,9.00
2019,05,04,05,02,9.00
2019,05,04,05,03,8.90
2019,05,04,05,04,8.90
2019,05,04,05,05,8.90
2019,05,04,05,06,8.90
2019,05,04,05,07,8.90
2019,05,04,05,08,8.90
2019,05,04,05,09,8.90
2019,05,04,05,10,8.90
2019,05,04,05,11,8.90
2019,05,04,05,12,8.90
2019,05,04,05,13,8.90
2019,05,04,05,14,8.90
2019,05,04,05,15,8.90
2019,05,04,05,16,8.80
2019,05,04,05,17,8.80
2019,05,04,05,18,8.80
2019,05,04,05,19,8.80
2019,05,04,05,20,8.80
2019,05,04,05,21,8.80
2019,05,04,05,22,8.80
2019,05,04,05,23,8.80
2019,05,04,05,24,8.80
2019,05,04,05,25,8.70
2019,05,04,05,26,8.70
2019,05,04,05,27,8.70
2019,05,04,05,28,8.70
2019,05,04,05,29,8.60
2019,05,04,05,30,8.60
2019,05,04,05,31,8.60
2019,05,04,05,32,8.60
2019,05,04,05,33,8.60
2019,05,04,05,34,8.60
2019,05,04,05,35,8.60
2019,05,04,05,36,8.60
2019,05,04,05,37,8.70
2019,05,04,05,38,8.70
2019,05,04,05,39,8.70
2019,05,04,05,40,8.70
2019,05,04,05,41,8.70
2019,05,04,05,42,8.70
2019,05,04,05,43,8.70
2019,05,04,05,44,8.70
2019,05,04,05,45,8.70
2019,05,04,05,46,8.70
2019,05,04,05,47,8.70
2019,05,04,05,48,8.70
2019,05,04,05,49,8.70
2019,05,04,05,50,8.70
2019,05,04,05,51,8.70
2019,05,04,05,52,8.70
2019,05,04,05,53,8.70
2019,05,04,05,54,8.70
2019,05,04,05,55,8.70
2019,05,04,05,56,8.60
2019,05,04,05,57,8.60
2019,05,04,05,58,8.60
2019,05,04,05,59,8.60
2019,05,04,06,00,8.60
2019,05,04,06,01,8.60
2019,05,04,06,02,8.50
2019,05,04,06,03,8.50
2019,05,04,06,04,8.50
2019,05,04,06,05,8.50
2019,05,04,06,06,8.50
2019,05,04,06,07,8.40
2019,05,04,06,08,8.40
2019,05,04,06,09,8.40
2019,05,04,06,10,8.40
2019,05,04,06,11,8.40
2019,05,04,06,12,8.40
2019,05,04,06,13,8.30
2019,05,04,06,14,8.30
2019,05,04,06,15,8.30
2019,05,04,06,16,8.20
2019,05,04,06,17,8.20
2019,05,04,06,18,8.20
2019,05,04,06,19,8.20
2019,05,04,06,20,8.20
2019,05,04,06,21,8.20
2019,05,04,06,22,8.20
2019,05,04,06,23,8.10
2019,05,04,06,24,8.20
2019,05,04,06,25,8.10
2019,05,04,06,26,8.10
2019,05,04,06,27,8.10
2019,05,04,06,28,8.10
2019,05,04,06,29,8.20
2019,05,04,06,30,8.20
2019,05,04,06,31,8.20
2019,05,04,06,32,8.20
2019,05,04,06,33,8.20
2019,05,04,06,34,8.20
2019,05,04,06,35,8.20
2019,05,04,06,36,8.20
2019,05,04,06,37,8.10
2019,05,04,06,38,8.10
2019,05,04,06,39,8.10
2019,05,04,06,40,8.10
2019,05,04,06,41,8.20
2019,05,04,06,42,8.20
2019,05,04,06,43,8.20
2019,05,04,06,44,8.10
2019,05,04,06,45,8.20
2019,05,04,06,46,8.20
2019,05,04,06,47,8.20
2019,05,04,06,48,8.20
2019,05,04,06,49,8.20
2019,05,04,06,50,8.20
2019,05,04,06,51,8.20
2019,05,04,06,52,8.20
2019,05,04,06,53,8.20
2019,05,04,06,54,8.30
2019,05,04,06,55,8.30
2019,05,04,06,56,8.30
2019,05,04,06,57,8.30
2019,05,04,06,58,8.30
2019,05,04,06,59,8.30
2019,05,04,07,00,8.30
2019,05,04,07,01,8.40
2019,05,04,07,02,8.50
2019,05,04,07,03,8.50
2019,05,04,07,04,8.60
2019,05,04,07,05,8.70
2019,05,04,07,06,8.80
2019,05,04,07,07,8.90
2019,05,04,07,08,8.90
2019,05,04,07,09,9.00
2019,05,04,07,10,9.10
2019,05,04,07,11,9.10
2019,05,04,07,12,9.20
2019,05,04,07,13,9.30
2019,05,04,07,14,9.40
2019,05,04,07,15,9.40
2019,05,04,07,16,9.50
2019,05,04,07,17,9.50
2019,05,04,07,18,9.50
2019,05,04,07,19,9.50
2019,05,04,07,20,9.50
2019,05,04,07,21,9.60
2019,05,04,07,22,9.60
2019,05,04,07,23,9.60
2019,05,04,07,24,9.60
2019,05,04,07,25,9.50
2019,05,04,07,26,9.50
2019,05,04,07,27,9.60
2019,05,04,07,28,9.60
2019,05,04,07,29,9.60
2019,05,04,07,30,9.60
2019,05,04,07,31,9.60
2019,05,04,07,32,9.60
2019,05,04,07,33,9.60
2019,05,04,07,34,9.70
2019,05,04,07,35,9.70
2019,05,04,07,36,9.70
2019,05,04,07,37,9.70
2019,05,04,07,38,9.70
2019,05,04,07,39,9.70
2019,05,04,07,40,9.80
2019,05,04,07,41,9.80
2019,05,04,07,42,9.80
2019,05,04,07,43,9.80
2019,05,04,07,44,9.90
2019,05,04,07,45,9.90
2019,05,04,07,46,10.00
2019,05,04,07,47,10.00
2019,05,04,07,48,10.10
2019,05,04,07,49,10.10
2019,05,04,07,50,10.10
2019,05,04,07,51,10.10
2019,05,04,07,52,10.20
2019,05,04,07,53,10.20
2019,05,04,07,54,10.20
2019,05,04,07,55,10.20
2019,05,04,07,56,10.30
2019,05,04,07,57,10.30
2019,05,04,07,58,10.30
2019,05,04,07,59,10.30
2019,05,04,08,00,10.20
2019,05,04,08,01,10.20
2019,05,04,08,02,10.20
2019,05,04,08,03,10.20
2019,05,04,08,04,10.20
2019,05,04,08,05,10.30
2019,05,04,08,06,10.30
2019,05,04,08,07,10.30
2019,05,04,08,08,10.30
2019,05,04,08,09,10.30
2019,05,04,08,10,10.40
2019,05,04,08,11,10.40
2019,05,04,08,12,10.40
2019,05,04,08,13,10.50
2019,05,04,08,14,10.60
2019,05,04,08,15,10.60
2019,05,04,08,16,10.60
2019,05,04,08,17,10.60
2019,05,04,08,18,10.60
2019,05,04,08,19,10.60
2019,05,04,08,20,10.60
2019,05,04,08,21,10.60
2019,05,04,08,22,10.70
2019,05,04,08,23,10.70
2019,05,04,08,24,10.70
2019,05,04,08,25,10.70
2019,05,04,08,26,10.80
2019,05,04,08,27,10.80
2019,05,04,08,28,10.80
2019,05,04,08,29,10.80
2019,05,04,08,30,10.90
2019,05,04,08,31,10.90
2019,05,04,08,32,11.00
2019,05,04,08,33,11.00
2019,05,04,08,34,11.00
2019,05,04,08,35,11.00
2019,05,04,08,36,11.00
2019,05,04,08,37,11.00
2019,05,04,08,38,11.00
2019,05,04,08,39,11.00
2019,05,04,08,40,11.00
2019,05,04,08,41,11.10
2019,05,04,08,42,11.10
2019,05,04,08,43,11.10
2019,05,04,08,44,11.10
2019,05,04,08,45,11.10
2019,05,04,08,46,11.10
2019,05,04,08,47,11.20
2019,05,04,08,48,11.20
2019,05,04,08,49,11.30
2019,05,04,08,50,11.30
2019,05,04,08,51,11.30
2019,05,04,08,52,11.40
2019,05,04,08,53,11.40
2019,05,04,08,54,11.40
2019,05,04,08,55,11.40
2019,05,04,08,56,11.50
2019,05,04,08,57,11.50
2019,05,04,08,58,11.50
2019,05,04,08,59,11.60
2019,05,04,09,00,11.70
2019,05,04,09,01,11.80
2019,05,04,09,02,11.80
2019,05,04,09,03,11.90
2019,05,04,09,04,11.90
2019,05,04,09,05,11.90
2019,05,04,09,06,11.90
2019,05,04,09,07,11.90
2019,05,04,09,08,12.00
2019,05,04,09,09,12.00
2019,05,04,09,10,12.00
2019,05,04,09,11,12.10
2019,05,04,09,12,12.10
2019,05,04,09,13,12.10
2019,05,04,09,14,12.20
2019,05,04,09,15,12.20
2019,05,04,09,16,12.20
2019,05,04,09,17,12.20
2019,05,04,09,18,12.20
2019,05,04,09,19,12.20
2019,05,04,09,20,12.10
2019,05,04,09,21,12.10
2019,05,04,09,22,12.20
2019,05,04,09,23,12.20
2019,05,04,09,24,12.20
2019,05,04,09,25,12.20
2019,05,04,09,26,12.30
2019,05,04,09,27,12.30
2019,05,04,09,28,12.30
2019,05,04,09,29,12.30
2019,05,04,09,30,12.30
2019,05,04,09,31,12.40
2019,05,04,09,32,12.40
2019,05,04,09,33,12.50
2019,05,04,09,34,12.60
2019,05,04,09,35,12.60
2019,05,04,09,36,12.70
2019,05,04,09,37,12.70
2019,05,04,09,38,12.70
2019,05,04,09,39,12.70
2019,05,04,09,40,12.70
2019,05,04,09,41,12.80
2019,05,04,09,42,12.80
2019,05,04,09,43,12.70
2019,05,04,09,44,12.70
2019,05,04,09,45,12.70
2019,05,04,09,46,12.80
2019,05,04,09,47,12.80
2019,05,04,09,48,12.80
2019,05,04,09,49,12.80
2019,05,04,09,50,12.70
2019,05,04,09,51,12.70
2019,05,04,09,52,12.70
2019,05,04,09,53,12.80
2019,05,04,09,54,12.80
2019,05,04,09,55,12.90
2019,05,04,09,56,12.90
2019,05,04,09,57,13.00
2019,05,04,09,58,13.00
2019,05,04,09,59,13.10
2019,05,04,10,00,13.10
2019,05,04,10,01,13.20
2019,05,04,10,02,13.20
2019,05,04,10,03,13.20
2019,05,04,10,04,13.30
2019,05,04,10,05,13.30
2019,05,04,10,06,13.30
2019,05,04,10,07,13.30
2019,05,04,10,08,13.20
2019,05,04,10,09,13.20
2019,05,04,10,10,13.30
2019,05,04,10,11,13.30
2019,05,04,10,12,13.20
2019,05,04,10,13,13.30
2019,05,04,10,14,13.30
2019,05,04,10,15,13.30
2019,05,04,10,16,13.30
2019,05,04,10,17,13.30
2019,05,04,10,18,13.40
2019,05,04,10,19,13.40
2019,05,04,10,20,13.40
2019,05,04,10,21,13.40
2019,05,04,10,22,13.30
2019,05,04,10,23,13.20
2019,05,04,10,24,13.20
2019,05,04,10,25,13.20
2019,05,04,10,26,13.30
2019,05,04,10,27,13.30
2019,05,04,10,28,13.30
2019,05,04,10,29,13.30
2019,05,04,10,30,13.30
2019,05,04,10,31,13.30
2019,05,04,10,32,13.30
2019,05,04,10,33,13.30
2019,05,04,10,34,13.30
2019,05,04,10,35,13.20
2019,05,04,10,36,13.20
2019,05,04,10,37,13.10
2019,05,04,10,38,13.10
2019,05,04,10,39,13.00
2019,05,04,10,40,13.00
2019,05,04,10,41,12.90
2019,05,04,10,42,12.90
2019,05,04,10,43,13.00
2019,05,04,10,44,13.10
2019,05,04,10,45,13.20
2019,05,04,10,46,13.20
2019,05,04,10,47,13.10
2019,05,04,10,48,13.10
2019,05,04,10,49,13.10
2019,05,04,10,50,13.10
2019,05,04,10,51,13.10
2019,05,04,10,52,13.20
2019,05,04,10,53,13.20
2019,05,04,10,54,13.20
2019,05,04,10,55,13.20
2019,05,04,10,56,13.30
2019,05,04,10,57,13.30
2019,05,04,10,58,13.40
2019,05,04,10,59,13.50
2019,05,04,11,00,13.50
2019,05,04,11,01,13.50
2019,05,04,11,02,13.50
2019,05,04,11,03,13.50
2019,05,04,11,04,13.50
2019,05,04,11,05,13.40
2019,05,04,11,06,13.40
2019,05,04,11,07,13.40
2019,05,04,11,08,13.40
2019,05,04,11,09,13.40
2019,05,04,11,10,13.40
2019,05,04,11,11,13.40
2019,05,04,11,12,13.40
2019,05,04,11,13,13.30
2019,05,04,11,14,13.30
2019,05,04,11,15,13.20
2019,05,04,11,16,13.10
2019,05,04,11,17,13.10
2019,05,04,11,18,13.20
2019,05,04,11,19,13.20
2019,05,04,11,20,13.30
2019,05,04,11,21,13.20
2019,05,04,11,22,13.20
2019,05,04,11,23,13.20
2019,05,04,11,24,13.20
2019,05,04,11,25,13.20
2019,05,04,11,26,13.10
2019,05,04,11,27,13.10
2019,05,04,11,28,13.20
2019,05,04,11,29,13.30
2019,05,04,11,30,13.30
2019,05,04,11,31,13.30
2019,05,04,11,32,13.30
2019,05,04,11,33,13.30
2019,05,04,11,34,13.30
2019,05,04,11,35,13.20
2019,05,04,11,36,13.20
2019,05,04,11,37,13.30
2019,05,04,11,38,13.30
2019,05,04,11,39,13.30
2019,05,04,11,40,13.30
2019,05,04,11,41,13.30
2019,05,04,11,42,13.40
2019,05,04,11,43,13.50
2019,05,04,11,44,13.50
2019,05,04,11,45,13.60
2019,05,04,11,46,13.70
2019,05,04,11,47,13.80
2019,05,04,11,48,13.80
2019,05,04,11,49,13.80
2019,05,04,11,50,13.60
2019,05,04,11,51,13.50
2019,05,04,11,52,13.30
2019,05,04,11,53,13.30
2019,05,04,11,54,13.20
2019,05,04,11,55,13.20
2019,05,04,11,56,13.20
2019,05,04,11,57,13.20
2019,05,04,11,58,13.20
2019,05,04,11,59,13.30
2019,05,04,12,00,13.30
2019,05,04,12,01,13.40
2019,05,04,12,02,13.40
2019,05,04,12,03,13.40
2019,05,04,12,04,13.50
2019,05,04,12,05,13.60
2019,05,04,12,06,13.50
2019,05,04,12,07,13.60
2019,05,04,12,08,13.60
2019,05,04,12,09,13.60
2019,05,04,12,10,13.50
2019,05,04,12,11,13.50
2019,05,04,12,12,13.40
2019,05,04,12,13,13.30
2019,05,04,12,14,13.40
2019,05,04,12,15,13.40
2019,05,04,12,16,13.40
2019,05,04,12,17,13.50
2019,05,04,12,18,13.60
2019,05,04,12,19,13.70
2019,05,04,12,20,13.70
2019,05,04,12,21,13.80
2019,05,04,12,22,13.80
2019,05,04,12,23,13.90
2019,05,04,12,24,13.90
2019,05,04,12,25,13.90
2019,05,04,12,26,13.90
2019,05,04,12,27,13.90
2019,05,04,12,28,13.90
2019,05,04,12,29,14.00
2019,05,04,12,30,14.00
2019,05,04,12,31,14.00
2019,05,04,12,32,14.00
2019,05,04,12,33,13.90
2019,05,04,12,34,13.90
2019,05,04,12,35,14.00
2019,05,04,12,36,14.00
2019,05,04,12,37,14.10
2019,05,04,12,38,14.10
2019,05,04,12,39,14.20
2019,05,04,12,40,14.20
2019,05,04,12,41,14.10
2019,05,04,12,42,14.10
2019,05,04,12,43,14.00
2019,05,04,12,44,14.00
2019,05,04,12,45,14.10
2019,05,04,12,46,14.20
2019,05,04,12,47,14.20
2019,05,04,12,48,14.20
2019,05,04,12,49,14.20
2019,05,04,12,50,14.20
2019,05,04,12,51,14.30
2019,05,04,12,52,14.30
2019,05,04,12,53,14.30
2019,05,04,12,54,14.40
2019,05,04,12,55,14.40
2019,05,04,12,56,14.30
2019,05,04,12,57,14.30
2019,05,04,12,58,14.40
2019,05,04,12,59,14.40
2019,05,04,13,00,14.40
2019,05,04,13,01,14.60
2019,05,04,13,02,14.70
2019,05,04,13,03,14.70
2019,05,04,13,04,14.80
2019,05,04,13,05,14.80
2019,05,04,13,06,14.80
2019,05,04,13,07,14.80
2019,05,04,13,08,14.80
2019,05,04,13,09,14.60
2019,05,04,13,10,14.60
2019,05,04,13,11,14.60
2019,05,04,13,12,14.50
2019,05,04,13,13,14.40
2019,05,04,13,14,14.40
2019,05,04,13,15,14.40
2019,05,04,13,16,14.50
2019,05,04,13,17,14.50
2019,05,04,13,18,14.60
2019,05,04,13,19,14.60
2019,05,04,13,20,14.70
2019,05,04,13,21,14.70
2019,05,04,13,22,14.80
2019,05,04,13,23,14.70
2019,05,04,13,24,14.70
2019,05,04,13,25,14.70
2019,05,04,13,26,14.60
2019,05,04,13,27,14.60
2019,05,04,13,28,14.70
2019,05,04,13,29,14.70
2019,05,04,13,30,14.70
2019,05,04,13,31,14.60
2019,05,04,13,32,14.60
2019,05,04,13,33,14.60
2019,05,04,13,34,14.70
2019,05,04,13,35,14.80
2019,05,04,13,36,14.80
2019,05,04,13,37,14.80
2019,05,04,13,38,14.90
2019,05,04,13,39,14.90
2019,05,04,13,40,14.90
2019,05,04,13,41,15.00
2019,05,04,13,42,15.10
2019,05,04,13,43,15.30
2019,05,04,13,44,15.30
2019,05,04,13,45,15.40
2019,05,04,13,46,15.50
2019,05,04,13,47,15.60
2019,05,04,13,48,15.70
2019,05,04,13,49,15.80
2019,05,04,13,50,15.80
2019,05,04,13,51,15.80
2019,05,04,13,52,15.90
2019,05,04,13,53,15.80
2019,05,04,13,54,15.80
2019,05,04,13,55,15.90
2019,05,04,13,56,15.90
2019,05,04,13,57,15.90
2019,05,04,13,58,16.10
2019,05,04,13,59,16.20
2019,05,04,14,00,16.30
2019,05,04,14,01,16.30
2019,05,04,14,02,16.40
2019,05,04,14,03,16.50
2019,05,04,14,04,16.50
2019,05,04,14,05,16.50
2019,05,04,14,06,16.60
2019,05,04,14,07,16.70
2019,05,04,14,08,16.70
2019,05,04,14,09,16.70
2019,05,04,14,10,16.60
2019,05,04,14,11,16.60
2019,05,04,14,12,16.60
2019,05,04,14,13,16.50
2019,05,04,14,14,16.60
2019,05,04,14,15,16.50
2019,05,04,14,16,16.30
2019,05,04,14,17,16.20
2019,05,04,14,18,16.20
2019,05,04,14,19,16.10
2019,05,04,14,20,16.20
2019,05,04,14,21,16.30
2019,05,04,14,22,16.30
2019,05,04,14,23,16.40
2019,05,04,14,24,16.60
2019,05,04,14,25,16.60
2019,05,04,14,26,16.60
2019,05,04,14,27,16.60
2019,05,04,14,28,16.70
2019,05,04,14,29,16.90
2019,05,04,14,30,17.00
2019,05,04,14,31,17.00
2019,05,04,14,32,17.10
2019,05,04,14,33,17.20
2019,05,04,14,34,17.10
2019,05,04,14,35,17.00
2019,05,04,14,36,16.90
2019,05,04,14,37,16.90
2019,05,04,14,38,16.90
2019,05,04,14,39,16.90
2019,05,04,14,40,16.90
2019,05,04,14,41,16.80
2019,05,04,14,42,16.80
2019,05,04,14,43,16.70
2019,05,04,14,44,16.70
2019,05,04,14,45,16.60
2019,05,04,14,46,16.60
2019,05,04,14,47,16.60
2019,05,04,14,48,16.70
2019,05,04,14,49,16.70
2019,05,04,14,50,16.90
2019,05,04,14,51,17.00
2019,05,04,14,52,17.10
2019,05,04,14,53,17.20
2019,05,04,14,54,17.20
2019,05,04,14,55,17.10
2019,05,04,14,56,17.10
2019,05,04,14,57,17.10
2019,05,04,14,58,17.10
2019,05,04,14,59,17.00
2019,05,04,15,00,17.00
2019,05,04,15,01,16.90
2019,05,04,15,02,16.80
2019,05,04,15,03,16.70
2019,05,04,15,04,16.70
2019,05,04,15,05,16.80
2019,05,04,15,06,16.80
2019,05,04,15,07,16.80
2019,05,04,15,08,16.80
2019,05,04,15,09,16.80
2019,05,04,15,10,16.80
2019,05,04,15,11,16.80
2019,05,04,15,12,16.80
2019,05,04,15,13,16.80
2019,05,04,15,14,16.80
2019,05,04,15,15,16.80
2019,05,04,15,16,16.80
2019,05,04,15,17,16.70
2019,05,04,15,18,16.70
2019,05,04,15,19,16.70
2019,05,04,15,20,16.70
2019,05,04,15,21,16.70
2019,05,04,15,22,16.60
2019,05,04,15,23,16.60
2019,05,04,15,24,16.60
2019,05,04,15,25,16.60
2019,05,04,15,26,16.70
2019,05,04,15,27,16.70
2019,05,04,15,28,16.70
2019,05,04,15,29,16.60
2019,05,04,15,30,16.60
2019,05,04,15,31,16.60
2019,05,04,15,32,16.60
2019,05,04,15,33,16.60
2019,05,04,15,34,16.60
2019,05,04,15,35,16.50
2019,05,04,15,36,16.50
2019,05,04,15,37,16.50
2019,05,04,15,38,16.60
2019,05,04,15,39,16.70
2019,05,04,15,40,16.80
2019,05,04,15,41,16.90
2019,05,04,15,42,16.90
2019,05,04,15,43,17.00
2019,05,04,15,44,17.10
2019,05,04,15,45,17.20
2019,05,04,15,46,17.30
2019,05,04,15,47,17.30
2019,05,04,15,48,17.20
2019,05,04,15,49,17.10
2019,05,04,15,50,17.10
2019,05,04,15,51,17.10
2019,05,04,15,52,17.00
2019,05,04,15,53,16.90
2019,05,04,15,54,16.80
2019,05,04,15,55,16.80
2019,05,04,15,56,16.80
2019,05,04,15,57,16.80
2019,05,04,15,58,16.70
2019,05,04,15,59,16.70
2019,05,04,16,00,16.70
2019,05,04,16,01,16.60
2019,05,04,16,02,16.60
2019,05,04,16,03,16.60
2019,05,04,16,04,16.60
2019,05,04,16,05,16.50
2019,05,04,16,06,16.60
2019,05,04,16,07,16.60
2019,05,04,16,08,16.60
2019,05,04,16,09,16.70
2019,05,04,16,10,16.70
2019,05,04,16,11,16.80
2019,05,04,16,12,16.80
2019,05,04,16,13,16.80
2019,05,04,16,14,16.80
2019,05,04,16,15,16.80
2019,05,04,16,16,16.70
2019,05,04,16,17,16.70
2019,05,04,16,18,16.70
2019,05,04,16,19,16.70
2019,05,04,16,20,16.60
2019,05,04,16,21,16.60
2019,05,04,16,22,16.60
2019,05,04,16,23,16.50
2019,05,04,16,24,16.50
2019,05,04,16,25,16.50
2019,05,04,16,26,16.50
2019,05,04,16,27,16.40
2019,05,04,16,28,16.30
2019,05,04,16,29,16.20
2019,05,04,16,30,16.20
2019,05,04,16,31,16.30
2019,05,04,16,32,16.30
2019,05,04,16,33,16.40
2019,05,04,16,34,16.40
2019,05,04,16,35,16.40
2019,05,04,16,36,16.40
2019,05,04,16,37,16.40
2019,05,04,16,38,16.40
2019,05,04,16,39,16.40
2019,05,04,16,40,16.40
2019,05,04,16,41,16.40
2019,05,04,16,42,16.40
2019,05,04,16,43,16.40
2019,05,04,16,44,16.40
2019,05,04,16,45,16.30
2019,05,04,16,46,16.30
2019,05,04,16,47,16.30
2019,05,04,16,48,16.30
2019,05,04,16,49,16.30
2019,05,04,16,50,16.30
2019,05,04,16,51,16.30
2019,05,04,16,52,16.30
2019,05,04,16,53,16.30
2019,05,04,16,54,16.30
2019,05,04,16,55,16.30
2019,05,04,16,56,16.30
2019,05,04,16,57,16.30
2019,05,04,16,58,16.30
2019,05,04,16,59,16.30
2019,05,04,17,00,16.30
2019,05,04,17,01,16.30
2019,05,04,17,02,16.40
2019,05,04,17,03,16.40
2019,05,04,17,04,16.50
2019,05,04,17,05,16.60
2019,05,04,17,06,16.70
2019,05,04,17,07,16.80
2019,05,04,17,08,16.80
2019,05,04,17,09,16.90
2019,05,04,17,10,16.90
2019,05,04,17,11,17.00
2019,05,04,17,12,17.00
2019,05,04,17,13,17.10
2019,05,04,17,14,17.10
2019,05,04,17,15,17.10
2019,05,04,17,16,17.10
2019,05,04,17,17,17.10
2019,05,04,17,18,17.00
2019,05,04,17,19,17.00
2019,05,04,17,20,17.00
2019,05,04,17,21,17.00
2019,05,04,17,22,17.10
2019,05,04,17,23,17.10
2019,05,04,17,24,17.20
2019,05,04,17,25,17.30
2019,05,04,17,26,17.40
2019,05,04,17,27,17.50
2019,05,04,17,28,17.50
2019,05,04,17,29,17.60
2019,05,04,17,30,17.70
2019,05,04,17,31,17.70
2019,05,04,17,32,17.70
2019,05,04,17,33,17.60
2019,05,04,17,34,17.70
2019,05,04,17,35,17.60
2019,05,04,17,36,17.60
2019,05,04,17,37,17.60